Location: Burbank
(38.7788°N, 114.0429°W)
Time: 20:58:00
(UTC+00:00)

S-56A Canister/Altair - Pass Details

Date: 15 May 2026
Orbit: 632 x 2484 km, 38.9° (Epoch: 8 June)

Event Time Altitude Azimuth Distance (km) Brightness Sun altitude
Rises 04:18:27 0° 246° (WSW) 3,058 10.9 -16.6°
Reaches altitude 10° 04:20:54 10° 242° (WSW) 2,054 10.0 -17.0°
Maximum altitude 04:25:20 61° 162° (SSE) 717 7.1 -17.6°
Enters shadow 04:27:44 26° 91° (E) 1,271 8.2 -17.9°
Drops below altitude 10° 04:29:54 10° 83° (E) 2,112 - -18.2°
Sets 04:32:26 0° 79° (E) 3,153 - -18.6°
